#timestamp,LO_Frequency,Hit,StdDev 
1678021215.6,286047000.8,N
1678021235.4,286047001.1,N
1678021255.3,286046998.1,N
1678021275.1,286046999.1,N
1678021295.9,286046996.8,N
1678021315.7,286046997.1,N
1678021335.5,286046996.8,N
1678021355.4,286046996.7,N
1678021375.2,286046996.7,N
1678021395.0,286046997.7,N
1678021395.9,286046997.7,N
1678021415.8,286046997.5,N
1678021435.6,286046997.5,N
1678021455.5,286046996.9,N
1678021475.3,286046996.7,N
1678021495.1,286046996.8,N
1678021515.9,286047001.0,N
1678021535.7,286047000.6,N
1678021555.6,286047000.6,N
1678021575.4,286047000.0,N
1678021595.2,286046998.2,N
1678021615.1,286046998.7,N
1678021616.0,286046998.7,N
1678021635.8,286046999.0,N
1678021655.6,286046999.1,N
1678021675.5,286046996.7,N
1678021695.3,286046997.3,N
1678021715.2,286046997.3,N
1678021735.9,286046995.5,Y
1678021755.7,286046997.7,P
1678021775.6,286046997.3,P
1678021795.4,286046996.8,P
1678021815.2,286046996.6,Y
1678021835.1,286047002.2,P
1678021836.0,286047002.2,N
1678021855.8,286047004.5,N
1678021875.7,286047008.2,Y
1678021895.5,286047009.4,P
1678021915.3,286047011.0,N
1678021935.2,286047011.2,N
1678021955.0,286047013.5,Y
1678021955.9,286047013.5,P
1678021975.8,286047003.0,N
1678021995.6,286047001.4,N
1678022015.4,286047002.8,N
1678022035.3,286046998.5,N
1678022055.1,286046997.0,N
1678022075.8,286046997.6,N
1678022095.7,286046997.2,N
1678022115.5,286046995.7,N
1678022135.4,286046995.7,N
1678022155.2,286046995.9,N
1678022175.0,286046995.5,N
1678022175.9,286046995.5,N
1678022195.8,286046995.6,N
1678022215.6,286046995.6,N
1678022235.4,286046994.2,N
1678022255.3,286046994.0,N
1678022275.1,286046992.0,N
1678022295.9,286046990.5,N
1678022315.7,286046990.7,N
1678022335.5,286046991.5,N
1678022355.4,286046991.2,N
1678022375.2,286046991.9,N
1678022395.0,286046991.7,N
1678022395.9,286046991.7,N
1678022415.8,286046992.4,N
1678022435.6,286046992.2,N
1678022455.4,286046992.3,N
1678022475.3,286046993.0,N
1678022495.1,286046994.8,N
1678022515.9,286046992.9,N
1678022535.7,286046991.9,N
1678022555.5,286046992.8,N
1678022575.4,286046990.8,Y
1678022595.2,286046995.4,P
1678022615.0,286046995.8,P
1678022616.0,286046995.8,P
1678022635.8,286046997.2,Y
1678022655.6,286047003.6,P
1678022675.5,286047005.4,N
1678022695.3,286047004.6,N
1678022715.1,286047005.1,N
1678022735.9,286047005.0,N
1678022755.7,286047003.5,N
1678022775.6,286047003.4,N
1678022795.4,286047007.6,N
1678022815.2,286047006.9,N
1678022835.1,286047006.4,N
1678022836.0,286047006.4,N
1678022855.8,286047008.6,N
1678022875.6,286047009.2,N
1678022895.5,286047007.1,N
1678022915.3,286047003.0,N
1678022935.2,286047001.3,N
1678022955.9,286047004.3,N
1678022975.7,286047004.3,N
1678022995.6,286047004.4,N
1678023015.4,286047001.5,N
1678023035.2,286047001.9,N
1678023055.1,286047002.1,N
1678023056.0,286047002.1,N
1678023075.8,286047003.7,N
1678023095.6,286047004.7,N
1678023115.5,286047006.0,N
1678023135.3,286047005.7,N
1678023155.2,286047005.4,N
1678023175.9,286047004.9,N
1678023195.7,286047004.7,N
1678023215.6,286047005.5,N
1678023235.4,286047005.8,N
1678023255.2,286047004.6,N
1678023275.1,286047010.8,Y
1678023276.0,286047010.8,P
1678023295.8,286047005.4,N
1678023315.7,286047005.4,N
1678023335.5,286047005.6,N
1678023355.3,286047005.0,N
1678023375.2,286047005.8,N
1678023395.0,286047003.3,N
1678023395.9,286047003.3,N
1678023415.7,286047003.1,N
1678023435.6,286047005.1,N
1678023455.4,286047007.4,Y
1678023475.3,286047000.1,P
1678023495.1,286047000.2,N
1678023496.0,286047000.2,N
1678023515.8,286047004.1,N
1678023535.7,286047006.9,Y
1678023555.5,286047007.3,P
1678023575.4,286047005.3,N
1678023595.2,286047005.3,N
1678023615.0,286047003.5,N
1678023615.9,286047003.5,N
1678023635.8,286047005.3,Y
1678023655.6,286047000.4,P
1678023675.4,286047000.8,N
1678023695.3,286047000.3,N
1678023715.1,286047000.1,N
1678023735.9,286047002.7,N
1678023755.7,286047000.9,N
1678023775.5,286047002.4,N
1678023795.4,286047000.2,N
1678023815.2,286046998.6,N
1678023835.0,286046999.4,N
1678023835.9,286046999.4,N
1678023855.8,286046996.6,N
1678023875.6,286046996.9,N
1678023895.5,286046997.0,N
1678023915.3,286046997.2,N
1678023935.1,286046997.4,N
1678023955.9,286046996.5,N
1678023975.7,286046997.2,N
1678023995.5,286046999.1,N
1678024015.4,286047001.0,N
1678024035.2,286047000.5,N
1678024055.1,286046998.3,N
1678024056.0,286046998.3,N
1678024075.8,286046998.7,N
1678024095.6,286046998.3,N
1678024115.5,286046996.8,N
1678024135.3,286046995.0,N
1678024155.1,286046997.1,N
1678024175.9,286047000.8,N
1678024195.7,286047001.8,N
1678024215.6,286047002.8,N
1678024235.4,286047002.7,N
1678024255.2,286047002.5,N
1678024275.1,286047001.1,N
1678024276.0,286047001.1,N
1678024295.8,286046999.0,N
1678024315.6,286046997.5,N
1678024335.5,286046999.6,N
1678024355.3,286046997.2,N
1678024375.2,286046998.7,N
1678024395.9,286047001.1,N
1678024415.7,286046998.8,N
1678024435.6,286046998.8,N
1678024455.4,286046999.3,N
1678024475.2,286046997.6,N
1678024495.1,286046999.6,N
1678024496.0,286046999.6,N
1678024515.8,286046997.2,N
1678024535.7,286046998.6,N
1678024555.5,286046998.8,N
1678024575.3,286046999.0,N
1678024595.2,286046994.9,N
1678024615.0,286046996.1,N
1678024615.9,286046996.1,N
1678024635.7,286046991.8,Y
1678024655.6,286046992.1,P
1678024675.4,286046991.3,N
1678024695.3,286046989.5,P
1678024715.1,286046988.3,Y
1678024735.8,286046994.7,P
1678024755.7,286046992.2,P
1678024775.5,286046992.9,P
1678024795.4,286046990.7,Y
